Location: Asheville, NC
(35.6000°N, 82.5500°W)
Time: 03:14:17
(UTC-04:00)

Vanguard 3 - Pass Details

Date: 11 February 2018
Orbit: 507 x 3264 km, 33.4° (Epoch: 24 May)

Event Time Altitude Azimuth Distance (km) Brightness Sun altitude
Rises 19:35:39 0° 255° (WSW) 2,645 11.4 -18.3°
Reaches altitude 10° 19:37:34 10° 252° (WSW) 1,845 10.2 -18.7°
Maximum altitude 19:41:34 64° 170° (S) 765 6.9 -19.5°
Enters shadow 19:43:25 38° 105° (ESE) 1,167 7.4 -19.8°
Drops below altitude 10° 19:47:37 10° 90° (E) 2,770 - -20.7°
Sets 19:51:06 0° 88° (E) 4,142 - -21.4°
